M I D A S
Marine Information and Data Acquisition System
Tripno 1993 of the Zeeleeuw from 2010-07-06 06:52:40 to 2010-07-06 13:51:27
Back to CruiseResearch ActivitiesStationsMapUnderway DataData graphs

EquipmentUnitsComments
TimeDGPSUTC
LatitudeDGPSDM.mWGS84
LongitudeDGPSDM.mWGS84
SpeedMeteo Stationm/sRelative wind speed
DirectionMeteo StationdegRelative wind direction
TemperatureMeteo Stationdeg CelciusAir temperature
PressureMeteo StationPaAtmospheric pressure
HumidityMeteo Station%Relative humidity
Missing or incorrect values are displayed as -999
Metereological data collected by the RV Zeeleeuw from 2010-07-06 06:44:44 to 2010-07-06 13:54:39
                                                                                    Next 1000 lines
Time Latitude Longitude Speed Direction Temperature Pressure Humidity
2010-07-06 06:44:54 51°13.662 2°55.957 3.6 31 16.7 102490 40
2010-07-06 06:44:59 51°13.663 2°55.955 5 27 16.7 102500 40
2010-07-06 06:45:04 51°13.663 2°55.953 5 39 16.7 102500 40
2010-07-06 06:45:09 51°13.664 2°55.95 5.2 30 16.7 102490 40
2010-07-06 06:45:14 51°13.665 2°55.946 5.9 35 16.7 102490 40
2010-07-06 06:45:19 51°13.666 2°55.943 7 26 16.7 102490 41
2010-07-06 06:45:25 51°13.667 2°55.938 5.7 34 16.7 102490 41
2010-07-06 06:45:31 51°13.669 2°55.932 7.2 23 16.7 102490 42
2010-07-06 06:45:37 51°13.67 2°55.926 5.9 40 16.7 102490 42
2010-07-06 06:45:42 51°13.672 2°55.921 6.6 23 16.7 102490 39
2010-07-06 06:45:47 51°13.674 2°55.916 6.2 37 16.7 102490 39
2010-07-06 06:45:52 51°13.675 2°55.91 5.8 27 16.7 102490 41
2010-07-06 06:45:58 51°13.678 2°55.902 7.2 35 16.7 102490 41
2010-07-06 06:46:03 51°13.68 2°55.895 6.2 28 16.7 102500 40
2010-07-06 06:46:08 51°13.682 2°55.887 6.3 36 16.7 102500 40
2010-07-06 06:46:13 51°13.684 2°55.88 6 22 16.6 102500 41
2010-07-06 06:46:18 51°13.687 2°55.872 6.2 34 16.6 102500 41
2010-07-06 06:46:22 51°13.689 2°55.866 6.8 27 16.6 102490 40
2010-07-06 06:46:28 51°13.692 2°55.856 5.6 35 16.6 102490 40
2010-07-06 06:46:33 51°13.695 2°55.848 4.6 21 16.6 102490 40
2010-07-06 06:46:38 51°13.698 2°55.84 4.2 40 16.6 102490 40
2010-07-06 06:46:42 51°13.701 2°55.834 4.8 23 16.6 102490 40
2010-07-06 06:46:48 51°13.705 2°55.824 4.8 41 16.6 102490 40
2010-07-06 06:46:53 51°13.708 2°55.816 4.2 24 16.6 102490 40
2010-07-06 06:46:58 51°13.712 2°55.809 4.7 34 16.6 102490 40
2010-07-06 06:47:02 51°13.715 2°55.803 5.4 24 16.6 102500 42
2010-07-06 06:47:07 51°13.719 2°55.795 5 38 16.6 102500 42
2010-07-06 06:47:13 51°13.724 2°55.787 5.3 24 16.6 102490 40
2010-07-06 06:47:18 51°13.729 2°55.78 5.2 41 16.6 102490 40
2010-07-06 06:47:22 51°13.732 2°55.774 4.5 22 16.6 102480 40
2010-07-06 06:47:28 51°13.737 2°55.767 4.8 37 16.6 102480 40
2010-07-06 06:47:33 51°13.74 2°55.762 5.4 22 16.6 102490 42
2010-07-06 06:47:38 51°13.743 2°55.758 2.9 32 16.6 102490 42
2010-07-06 06:47:42 51°13.744 2°55.756 2.4 28 16.6 102490 40
2010-07-06 06:47:48 51°13.747 2°55.752 3 35 16.6 102490 40
2010-07-06 06:47:53 51°13.749 2°55.748 4 24 16.6 102490 42
2010-07-06 06:47:57 51°13.751 2°55.745 4.4 35 16.6 102490 42
2010-07-06 06:48:02 51°13.754 2°55.74 3 21 16.6 102490 41
2010-07-06 06:48:07 51°13.757 2°55.735 4.9 41 16.6 102490 41
2010-07-06 06:48:13 51°13.761 2°55.728 4.9 22 16.6 102490 42
2010-07-06 06:48:18 51°13.765 2°55.723 5.5 38 16.6 102490 42
2010-07-06 06:48:22 51°13.768 2°55.718 5.2 22 16.7 102490 40
2010-07-06 06:48:28 51°13.773 2°55.71 5.2 33 16.7 102490 40
2010-07-06 06:48:33 51°13.777 2°55.704 5.6 28 16.7 102490 43
2010-07-06 06:48:38 51°13.782 2°55.697 5.9 36 16.7 102490 43
2010-07-06 06:48:42 51°13.786 2°55.691 5.3 27 16.7 102490 41
2010-07-06 06:48:48 51°13.792 2°55.683 3.3 33 16.7 102490 41
2010-07-06 06:48:53 51°13.797 2°55.677 3.7 25 16.6 102490 41
2010-07-06 06:48:58 51°13.802 2°55.671 3.7 38 16.6 102490 41
2010-07-06 06:49:02 51°13.806 2°55.667 3.3 21 16.6 102490 40
2010-07-06 06:49:08 51°13.813 2°55.661 6.3 36 16.6 102490 40
2010-07-06 06:49:13 51°13.819 2°55.656 5.3 30 16.6 102500 43
2010-07-06 06:49:18 51°13.825 2°55.653 6.9 39 16.6 102500 43
2010-07-06 06:49:22 51°13.83 2°55.65 5.7 28 16.7 102490 43
2010-07-06 06:49:28 51°13.837 2°55.646 6.1 41 16.7 102490 43
2010-07-06 06:49:33 51°13.843 2°55.644 6.5 24 16.7 102480 41
2010-07-06 06:49:38 51°13.85 2°55.642 6.8 35 16.7 102480 41
2010-07-06 06:49:42 51°13.855 2°55.641 5.9 21 16.7 102480 42
2010-07-06 06:49:48 51°13.863 2°55.64 5.2 35 16.7 102480 42
2010-07-06 06:49:53 51°13.869 2°55.64 4.2 23 16.7 102480 42
2010-07-06 06:49:57 51°13.875 2°55.64 5.7 34 16.7 102480 42
2010-07-06 06:50:02 51°13.881 2°55.64 5.9 27 16.7 102480 41
2010-07-06 06:50:08 51°13.889 2°55.642 7 37 16.7 102480 41
2010-07-06 06:50:13 51°13.896 2°55.643 6.1 21 16.8 102480 42
2010-07-06 06:50:18 51°13.902 2°55.646 6.7 39 16.8 102480 42
2010-07-06 06:50:22 51°13.907 2°55.648 5.7 28 16.8 102480 42
2010-07-06 06:50:28 51°13.914 2°55.652 6.3 33 16.8 102480 42
2010-07-06 06:50:33 51°13.92 2°55.655 6.6 45 16.7 102490 41
2010-07-06 06:50:37 51°13.924 2°55.658 5.6 41 16.7 102490 41
2010-07-06 06:50:42 51°13.929 2°55.661 5.4 44 16.7 102480 42
2010-07-06 06:50:47 51°13.933 2°55.664 4.3 43 16.7 102480 42
2010-07-06 06:50:53 51°13.937 2°55.667 4.2 42 16.6 102480 41
2010-07-06 06:50:57 51°13.939 2°55.669 3.9 38 16.6 102480 41
2010-07-06 06:51:02 51°13.941 2°55.671 3.7 39 16.6 102480 40
2010-07-06 06:51:07 51°13.943 2°55.673 3.6 32 16.6 102480 40
2010-07-06 06:51:13 51°13.943 2°55.673 3.1 32 16.6 102480 40
2010-07-06 06:51:18 51°13.944 2°55.673 3.8 25 16.6 102480 40
2010-07-06 06:51:22 51°13.943 2°55.672 3.5 25 16.6 102480 42
2010-07-06 06:51:27 51°13.943 2°55.669 4.1 24 16.6 102480 42
2010-07-06 06:51:33 51°13.941 2°55.665 4.2 15 16.6 102480 41
2010-07-06 06:51:38 51°13.941 2°55.66 3.6 16 16.6 102480 41
2010-07-06 06:51:42 51°13.94 2°55.656 4.1 10 16.6 102480 42
2010-07-06 06:51:47 51°13.94 2°55.65 3.2 4 16.6 102480 42
2010-07-06 06:51:52 51°13.94 2°55.643 4.5 5 16.6 102480 42
2010-07-06 06:51:57 51°13.941 2°55.635 4.6 2 16.6 102480 42
2010-07-06 06:52:02 51°13.942 2°55.628 4.9 -999 16.6 102480 43
2010-07-06 06:52:06 51°13.944 2°55.622 5.6 354 16.6 102480 43
2010-07-06 06:52:11 51°13.946 2°55.614 5.8 353 16.6 102480 41
2010-07-06 06:52:16 51°13.949 2°55.606 5.7 337 16.6 102480 41
2010-07-06 06:52:21 51°13.953 2°55.598 5.3 343 16.6 102480 41
2010-07-06 06:52:26 51°13.958 2°55.59 7.1 339 16.6 102480 41
2010-07-06 06:52:30 51°13.962 2°55.584 6.5 339 16.6 102480 41
2010-07-06 06:52:35 51°13.968 2°55.575 6.1 338 16.6 102480 41
2010-07-06 06:52:40 51°13.974 2°55.566 7.4 338 16.6 102480 42
2010-07-06 06:52:45 51°13.981 2°55.557 7.1 335 16.6 102480 42
2010-07-06 06:52:50 51°13.989 2°55.549 7.8 333 16.6 102480 42
2010-07-06 06:52:54 51°13.995 2°55.542 8.2 332 16.6 102480 42
2010-07-06 06:52:59 51°14.004 2°55.532 8.1 334 16.6 102480 41
2010-07-06 06:53:05 51°14.014 2°55.521 7.9 334 16.6 102480 41
2010-07-06 06:53:10 51°14.024 2°55.512 9.3 334 16.5 102480 41
2010-07-06 06:53:14 51°14.031 2°55.505 8.5 336 16.5 102480 41
2010-07-06 06:53:19 51°14.041 2°55.496 8.3 337 16.5 102480 41
2010-07-06 06:53:24 51°14.051 2°55.486 7.7 337 16.5 102480 41
2010-07-06 06:53:29 51°14.062 2°55.477 8 336 16.5 102470 41
2010-07-06 06:53:34 51°14.072 2°55.468 9.2 333 16.5 102470 41
2010-07-06 06:53:38 51°14.081 2°55.46 8.3 333 16.5 102470 40
2010-07-06 06:53:44 51°14.094 2°55.449 8.5 332 16.5 102470 40
2010-07-06 06:53:49 51°14.105 2°55.439 9.3 331 16.5 102470 41
2010-07-06 06:53:54 51°14.117 2°55.429 9.5 334 16.5 102470 41
2010-07-06 06:53:59 51°14.129 2°55.42 8.7 336 16.5 102470 42
2010-07-06 06:54:04 51°14.14 2°55.41 8.9 335 16.5 102470 42
2010-07-06 06:54:09 51°14.153 2°55.4 10 337 16.5 102470 41
2010-07-06 06:54:14 51°14.165 2°55.39 8.8 336 16.5 102470 41
2010-07-06 06:54:19 51°14.177 2°55.38 9.1 335 16.5 102470 42
2010-07-06 06:54:24 51°14.189 2°55.371 10.5 337 16.5 102470 42
2010-07-06 06:54:29 51°14.201 2°55.36 10.3 336 16.5 102470 42
2010-07-06 06:54:34 51°14.213 2°55.349 10.3 333 16.5 102470 42
2010-07-06 06:54:39 51°14.225 2°55.338 9.5 334 16.5 102460 42
2010-07-06 06:54:44 51°14.238 2°55.328 10 335 16.5 102460 42
2010-07-06 06:54:49 51°14.25 2°55.317 9.4 335 16.4 102470 41
2010-07-06 06:54:54 51°14.262 2°55.306 10.3 336 16.4 102470 41
2010-07-06 06:54:59 51°14.274 2°55.295 9.6 335 16.4 102470 41
2010-07-06 06:55:04 51°14.287 2°55.283 10.3 336 16.4 102470 41
2010-07-06 06:55:09 51°14.299 2°55.272 9 336 16.4 102460 42
2010-07-06 06:55:14 51°14.311 2°55.26 9.9 334 16.4 102460 42
2010-07-06 06:55:19 51°14.324 2°55.249 9.9 334 16.4 102470 42
2010-07-06 06:55:24 51°14.336 2°55.237 7.9 334 16.4 102470 42
2010-07-06 06:55:29 51°14.349 2°55.225 8.5 336 16.4 102460 42
2010-07-06 06:55:34 51°14.361 2°55.213 9.8 337 16.4 102460 42
2010-07-06 06:55:38 51°14.371 2°55.204 10.4 337 16.4 102470 42
2010-07-06 06:55:43 51°14.384 2°55.192 8.5 338 16.4 102470 42
2010-07-06 06:55:49 51°14.399 2°55.177 10.2 331 16.4 102470 41
2010-07-06 06:55:54 51°14.411 2°55.165 10.3 335 16.4 102470 41
2010-07-06 06:55:58 51°14.421 2°55.156 10.2 333 16.4 102480 43
2010-07-06 06:56:04 51°14.436 2°55.141 9 333 16.4 102480 43
2010-07-06 06:56:09 51°14.449 2°55.129 10.4 332 16.4 102470 43
2010-07-06 06:56:14 51°14.462 2°55.117 10.9 333 16.4 102470 43
2010-07-06 06:56:18 51°14.472 2°55.108 8.3 335 16.4 102460 41
2010-07-06 06:56:24 51°14.488 2°55.094 9.1 336 16.4 102460 41
2010-07-06 06:56:28 51°14.499 2°55.085 9.2 334 16.4 102470 43
2010-07-06 06:56:34 51°14.514 2°55.071 10.2 335 16.4 102470 43
2010-07-06 06:56:38 51°14.525 2°55.061 10 337 16.4 102460 42
2010-07-06 06:56:44 51°14.541 2°55.047 9.5 336 16.4 102460 42
2010-07-06 06:56:49 51°14.556 2°55.037 10.5 335 16.4 102460 42
2010-07-06 06:56:54 51°14.57 2°55.026 11.1 340 16.4 102460 42
2010-07-06 06:56:58 51°14.581 2°55.016 11.7 342 16.4 102460 43
2010-07-06 06:57:03 51°14.596 2°55.004 9.8 339 16.4 102460 43
2010-07-06 06:57:08 51°14.61 2°54.991 10.8 339 16.4 102460 42
2010-07-06 06:57:14 51°14.627 2°54.975 10.7 338 16.4 102460 42
2010-07-06 06:57:18 51°14.638 2°54.963 11.1 338 16.4 102460 42
2010-07-06 06:57:24 51°14.655 2°54.945 12.4 338 16.4 102460 42
2010-07-06 06:57:29 51°14.668 2°54.929 10.8 338 16.4 102460 42
2010-07-06 06:57:34 51°14.682 2°54.913 11.6 338 16.4 102460 42
2010-07-06 06:57:39 51°14.695 2°54.897 12.1 341 16.4 102450 43
2010-07-06 06:57:44 51°14.709 2°54.88 9.8 342 16.4 102450 43
2010-07-06 06:57:49 51°14.723 2°54.864 9.3 339 16.4 102460 43
2010-07-06 06:57:54 51°14.737 2°54.847 12.8 343 16.4 102460 43
2010-07-06 06:57:59 51°14.751 2°54.83 11.5 342 16.4 102460 42
2010-07-06 06:58:03 51°14.763 2°54.816 11 341 16.4 102460 42
2010-07-06 06:58:09 51°14.78 2°54.796 12.7 341 16.4 102460 43
2010-07-06 06:58:14 51°14.794 2°54.778 11.9 342 16.4 102460 43
2010-07-06 06:58:19 51°14.808 2°54.761 10.1 341 16.4 102460 42
2010-07-06 06:58:24 51°14.823 2°54.743 11.1 341 16.4 102460 42
2010-07-06 06:58:29 51°14.837 2°54.725 11.5 340 16.5 102460 43
2010-07-06 06:58:34 51°14.852 2°54.707 10 340 16.5 102460 43
2010-07-06 06:58:39 51°14.867 2°54.689 10.9 340 16.4 102460 41
2010-07-06 06:58:44 51°14.881 2°54.672 11.9 342 16.4 102460 41
2010-07-06 06:58:49 51°14.896 2°54.654 10.4 340 16.4 102460 41
2010-07-06 06:58:54 51°14.911 2°54.636 11.6 339 16.4 102460 41
2010-07-06 06:58:59 51°14.925 2°54.618 12.2 339 16.4 102460 40
2010-07-06 06:59:04 51°14.94 2°54.601 11.4 340 16.4 102460 40
2010-07-06 06:59:09 51°14.955 2°54.583 10.6 339 16.4 102450 41
2010-07-06 06:59:14 51°14.969 2°54.566 11.4 340 16.4 102450 41
2010-07-06 06:59:19 51°14.984 2°54.549 10.3 339 16.4 102460 42
2010-07-06 06:59:24 51°14.999 2°54.531 11.8 339 16.4 102460 42
2010-07-06 06:59:29 51°15.014 2°54.514 11.6 339 16.4 102460 43
2010-07-06 06:59:34 51°15.029 2°54.496 11.9 337 16.4 102460 43
2010-07-06 06:59:39 51°15.043 2°54.478 10.3 338 16.4 102460 43
2010-07-06 06:59:44 51°15.057 2°54.459 12.1 338 16.4 102460 43
2010-07-06 06:59:49 51°15.072 2°54.441 11.4 338 16.4 102460 42
2010-07-06 06:59:54 51°15.086 2°54.422 11.6 339 16.4 102460 42
2010-07-06 06:59:59 51°15.1 2°54.404 11.6 339 16.4 102460 42
2010-07-06 07:00:03 51°15.112 2°54.389 13.2 337 16.4 102460 42
2010-07-06 07:00:09 51°15.13 2°54.367 12.9 338 16.4 102460 42
2010-07-06 07:00:14 51°15.145 2°54.351 12 336 16.4 102460 42
2010-07-06 07:00:19 51°15.16 2°54.333 12.1 336 16.4 102450 42
2010-07-06 07:00:24 51°15.176 2°54.318 12.2 337 16.4 102450 42
2010-07-06 07:00:29 51°15.191 2°54.301 13.2 336 16.4 102460 42
2010-07-06 07:00:34 51°15.207 2°54.286 10 335 16.4 102460 42
2010-07-06 07:00:39 51°15.222 2°54.27 10.3 336 16.4 102460 42
2010-07-06 07:00:44 51°15.238 2°54.254 12.6 335 16.4 102460 42
2010-07-06 07:00:49 51°15.254 2°54.238 12.5 336 16.3 102450 42
2010-07-06 07:00:54 51°15.27 2°54.223 14.5 335 16.3 102450 42
2010-07-06 07:00:59 51°15.285 2°54.207 11.2 337 16.3 102460 42
2010-07-06 07:01:04 51°15.301 2°54.191 12.4 339 16.3 102460 42
2010-07-06 07:01:09 51°15.316 2°54.174 12.2 338 16.3 102470 42
2010-07-06 07:01:14 51°15.331 2°54.158 11.5 338 16.3 102470 42
2010-07-06 07:01:19 51°15.346 2°54.141 12.6 339 16.3 102460 43
2010-07-06 07:01:24 51°15.362 2°54.125 10.8 338 16.3 102460 43
2010-07-06 07:01:29 51°15.377 2°54.107 11 336 16.4 102450 42
2010-07-06 07:01:34 51°15.392 2°54.091 11.9 337 16.4 102450 42
2010-07-06 07:01:39 51°15.407 2°54.073 12.2 337 16.3 102460 41
2010-07-06 07:01:44 51°15.422 2°54.056 13 338 16.3 102460 41
2010-07-06 07:01:49 51°15.437 2°54.039 12.5 339 16.3 102460 42
2010-07-06 07:01:54 51°15.452 2°54.022 12.5 340 16.3 102460 42
2010-07-06 07:01:59 51°15.467 2°54.004 10.9 340 16.3 102460 42
2010-07-06 07:02:04 51°15.481 2°53.986 11 340 16.3 102460 42
2010-07-06 07:02:09 51°15.495 2°53.968 11.5 338 16.3 102460 42
2010-07-06 07:02:14 51°15.51 2°53.95 11.7 338 16.3 102460 42
2010-07-06 07:02:19 51°15.524 2°53.931 10.7 338 16.3 102460 42
2010-07-06 07:02:23 51°15.535 2°53.916 11.4 340 16.3 102460 42
2010-07-06 07:02:29 51°15.552 2°53.894 10.9 338 16.3 102460 42
2010-07-06 07:02:34 51°15.567 2°53.875 12 337 16.3 102460 42
2010-07-06 07:02:39 51°15.581 2°53.856 13.9 338 16.4 102460 43
2010-07-06 07:02:44 51°15.595 2°53.838 11.5 338 16.4 102460 43
2010-07-06 07:02:49 51°15.609 2°53.819 10.9 339 16.3 102460 42
2010-07-06 07:02:54 51°15.623 2°53.8 10.6 336 16.3 102460 42
2010-07-06 07:02:59 51°15.637 2°53.781 12.1 338 16.3 102460 43
2010-07-06 07:03:04 51°15.652 2°53.763 12.2 339 16.3 102460 43
2010-07-06 07:03:09 51°15.666 2°53.745 10.5 340 16.3 102460 42
2010-07-06 07:03:14 51°15.68 2°53.726 11.7 337 16.3 102460 42
2010-07-06 07:03:19 51°15.694 2°53.708 11.2 337 16.3 102450 42
2010-07-06 07:03:23 51°15.706 2°53.693 12.7 339 16.3 102450 42
2010-07-06 07:03:29 51°15.723 2°53.671 12.9 339 16.3 102460 42
2010-07-06 07:03:34 51°15.737 2°53.652 10.7 340 16.3 102460 42
2010-07-06 07:03:39 51°15.751 2°53.634 11.2 341 16.3 102450 42
2010-07-06 07:03:44 51°15.765 2°53.615 11.7 341 16.3 102450 42
2010-07-06 07:03:49 51°15.779 2°53.597 13.9 342 16.3 102460 43
2010-07-06 07:03:54 51°15.794 2°53.578 11.6 338 16.3 102460 43
2010-07-06 07:03:59 51°15.808 2°53.56 10.6 340 16.3 102450 43
2010-07-06 07:04:04 51°15.822 2°53.542 11.3 337 16.3 102450 43
2010-07-06 07:04:09 51°15.837 2°53.523 12.1 336 16.3 102460 43
2010-07-06 07:04:14 51°15.852 2°53.508 12.4 336 16.3 102460 43
2010-07-06 07:04:19 51°15.867 2°53.491 12.1 336 16.3 102450 42
2010-07-06 07:04:24 51°15.883 2°53.477 11.4 336 16.3 102450 42
2010-07-06 07:04:29 51°15.899 2°53.462 13.8 335 16.3 102460 42
2010-07-06 07:04:34 51°15.915 2°53.448 12.2 335 16.3 102460 42
2010-07-06 07:04:39 51°15.932 2°53.435 12.3 337 16.3 102460 43
2010-07-06 07:04:43 51°15.946 2°53.425 13.9 337 16.3 102460 43
2010-07-06 07:04:49 51°15.966 2°53.411 14.2 335 16.3 102450 42
2010-07-06 07:04:54 51°15.983 2°53.4 12.7 334 16.3 102450 42
2010-07-06 07:04:59 51°16.001 2°53.389 13.3 333 16.3 102450 43
2010-07-06 07:05:03 51°16.015 2°53.38 10.8 334 16.3 102450 43
2010-07-06 07:05:09 51°16.036 2°53.367 11.7 332 16.3 102450 42
2010-07-06 07:05:14 51°16.054 2°53.357 11.3 333 16.3 102450 42
2010-07-06 07:05:19 51°16.071 2°53.348 10.5 333 16.3 102450 42
2010-07-06 07:05:24 51°16.089 2°53.338 11 332 16.3 102450 42
2010-07-06 07:05:29 51°16.107 2°53.328 11.5 334 16.3 102460 42
2010-07-06 07:05:34 51°16.125 2°53.318 14.7 333 16.3 102460 42
2010-07-06 07:05:39 51°16.142 2°53.308 13.5 334 16.3 102460 43
2010-07-06 07:05:44 51°16.16 2°53.298 13.9 333 16.3 102460 43
2010-07-06 07:05:49 51°16.178 2°53.288 14.6 334 16.3 102450 43
2010-07-06 07:05:54 51°16.196 2°53.277 13 334 16.3 102450 43
2010-07-06 07:05:59 51°16.213 2°53.267 13.6 334 16.3 102460 42
2010-07-06 07:06:04 51°16.231 2°53.257 11 333 16.3 102460 42
2010-07-06 07:06:09 51°16.248 2°53.246 10.8 334 16.2 102440 42
2010-07-06 07:06:14 51°16.266 2°53.236 12 334 16.2 102440 42
2010-07-06 07:06:19 51°16.284 2°53.225 12.3 335 16.2 102440 42
2010-07-06 07:06:24 51°16.301 2°53.215 13.6 336 16.2 102440 42
2010-07-06 07:06:29 51°16.319 2°53.205 12.8 336 16.2 102450 42
2010-07-06 07:06:34 51°16.337 2°53.194 13.1 335 16.2 102450 42
2010-07-06 07:06:39 51°16.354 2°53.184 12.1 336 16.2 102460 43
2010-07-06 07:06:43 51°16.368 2°53.175 14.3 336 16.2 102460 43
2010-07-06 07:06:49 51°16.389 2°53.163 12.8 335 16.2 102440 42
2010-07-06 07:06:54 51°16.406 2°53.152 12 334 16.2 102440 42
2010-07-06 07:06:59 51°16.424 2°53.142 10.9 333 16.1 102450 40
2010-07-06 07:07:04 51°16.442 2°53.131 12.5 334 16.1 102450 40
2010-07-06 07:07:09 51°16.459 2°53.121 13.4 334 16.1 102450 41
2010-07-06 07:07:14 51°16.476 2°53.11 13.8 333 16.1 102450 41
2010-07-06 07:07:19 51°16.494 2°53.099 13.4 332 16.2 102460 43
2010-07-06 07:07:24 51°16.511 2°53.088 15.3 334 16.2 102460 43
2010-07-06 07:07:29 51°16.529 2°53.077 13.3 334 16.2 102460 43
2010-07-06 07:07:34 51°16.546 2°53.067 13.5 335 16.2 102460 43
2010-07-06 07:07:39 51°16.563 2°53.055 14.9 334 16.2 102460 42
2010-07-06 07:07:43 51°16.577 2°53.047 11.5 334 16.2 102460 42
2010-07-06 07:07:49 51°16.598 2°53.034 10.6 334 16.2 102450 42
2010-07-06 07:07:54 51°16.615 2°53.023 12.9 334 16.2 102450 42
2010-07-06 07:07:59 51°16.632 2°53.012 14.1 335 16.1 102450 42
2010-07-06 07:08:04 51°16.65 2°53.001 11.9 335 16.1 102450 42
2010-07-06 07:08:09 51°16.667 2°52.99 12.1 335 16.1 102460 41
2010-07-06 07:08:14 51°16.684 2°52.979 13.2 334 16.1 102460 41
2010-07-06 07:08:19 51°16.702 2°52.969 13.7 333 16.1 102460 42
2010-07-06 07:08:24 51°16.719 2°52.958 14.1 333 16.1 102460 42
2010-07-06 07:08:29 51°16.737 2°52.947 12.8 336 16.1 102460 42
2010-07-06 07:08:34 51°16.754 2°52.936 10.9 335 16.1 102460 42
2010-07-06 07:08:39 51°16.771 2°52.925 11.1 334 16.1 102460 43
2010-07-06 07:08:43 51°16.785 2°52.916 11.2 336 16.1 102460 43
2010-07-06 07:08:49 51°16.805 2°52.903 10.8 336 16.1 102460 42
2010-07-06 07:08:54 51°16.822 2°52.891 14.4 336 16.1 102460 42
2010-07-06 07:08:59 51°16.84 2°52.88 14.6 335 16.1 102460 43
2010-07-06 07:09:04 51°16.857 2°52.869 13 337 16.1 102460 43
2010-07-06 07:09:09 51°16.874 2°52.858 12 336 16.1 102450 43
2010-07-06 07:09:14 51°16.891 2°52.847 14.1 335 16.1 102450 43
2010-07-06 07:09:19 51°16.908 2°52.836 14 335 16.2 102460 43
2010-07-06 07:09:23 51°16.922 2°52.827 13.1 337 16.2 102460 43
2010-07-06 07:09:29 51°16.943 2°52.813 12.8 337 16.2 102460 43
2010-07-06 07:09:34 51°16.96 2°52.802 11.7 337 16.2 102460 43
2010-07-06 07:09:39 51°16.978 2°52.791 11.4 337 16.2 102460 41
2010-07-06 07:09:44 51°16.995 2°52.779 11.5 335 16.2 102460 41
2010-07-06 07:09:49 51°17.013 2°52.768 13.2 336 16.1 102460 42
2010-07-06 07:09:54 51°17.031 2°52.757 13.3 336 16.1 102460 42
2010-07-06 07:09:59 51°17.048 2°52.745 12.2 337 16.1 102460 41
2010-07-06 07:10:04 51°17.065 2°52.734 13.2 338 16.1 102460 41
2010-07-06 07:10:09 51°17.083 2°52.722 13.8 338 16.1 102460 41
2010-07-06 07:10:14 51°17.1 2°52.711 11.8 334 16.1 102460 41
2010-07-06 07:10:19 51°17.118 2°52.7 12.1 335 16.1 102460 41
2010-07-06 07:10:24 51°17.136 2°52.691 13.6 335 16.1 102460 41
2010-07-06 07:10:29 51°17.154 2°52.683 10.4 331 16.1 102460 41
2010-07-06 07:10:34 51°17.173 2°52.676 10.7 330 16.1 102460 41
2010-07-06 07:10:39 51°17.191 2°52.67 11.5 330 16.1 102460 42
2010-07-06 07:10:44 51°17.21 2°52.664 12.4 331 16.1 102460 42
2010-07-06 07:10:49 51°17.229 2°52.659 13 330 16.2 102460 42
2010-07-06 07:10:54 51°17.248 2°52.654 12.2 332 16.2 102460 42
2010-07-06 07:10:59 51°17.267 2°52.65 12.8 329 16.2 102470 42
2010-07-06 07:11:04 51°17.286 2°52.647 13.1 328 16.2 102470 42
2010-07-06 07:11:09 51°17.305 2°52.643 13.4 328 16.2 102460 43
2010-07-06 07:11:14 51°17.324 2°52.639 12.6 329 16.2 102460 43
2010-07-06 07:11:19 51°17.343 2°52.636 12.7 329 16.2 102460 42
2010-07-06 07:11:24 51°17.362 2°52.633 11.9 328 16.2 102460 42
2010-07-06 07:11:29 51°17.382 2°52.629 13.1 329 16.2 102450 43
2010-07-06 07:11:34 51°17.401 2°52.626 11.9 329 16.2 102450 43
2010-07-06 07:11:39 51°17.42 2°52.622 10.9 329 16.1 102460 42
2010-07-06 07:11:43 51°17.435 2°52.62 10.9 329 16.1 102460 42
2010-07-06 07:11:49 51°17.458 2°52.616 10.6 328 16.1 102450 42
2010-07-06 07:11:54 51°17.477 2°52.612 10.2 330 16.1 102450 42
2010-07-06 07:11:59 51°17.496 2°52.608 10.8 327 16.2 102450 42
2010-07-06 07:12:04 51°17.516 2°52.605 11.6 328 16.2 102450 42
2010-07-06 07:12:09 51°17.535 2°52.601 12.7 328 16.2 102470 43
2010-07-06 07:12:14 51°17.554 2°52.598 12.6 328 16.2 102470 43
2010-07-06 07:12:19 51°17.573 2°52.594 12.6 329 16.2 102470 41
2010-07-06 07:12:24 51°17.592 2°52.59 13.8 328 16.2 102470 41
2010-07-06 07:12:29 51°17.611 2°52.587 12.3 329 16.2 102460 44
2010-07-06 07:12:34 51°17.63 2°52.583 13.3 330 16.2 102460 44
2010-07-06 07:12:39 51°17.649 2°52.579 13 330 16.2 102460 43
2010-07-06 07:12:43 51°17.664 2°52.576 12.4 328 16.2 102460 43
2010-07-06 07:12:49 51°17.687 2°52.571 10.8 329 16.2 102460 42
2010-07-06 07:12:54 51°17.707 2°52.568 11.4 329 16.2 102460 42
2010-07-06 07:12:59 51°17.726 2°52.563 11.4 328 16.2 102460 42
2010-07-06 07:13:04 51°17.745 2°52.56 12.3 328 16.2 102460 42
2010-07-06 07:13:09 51°17.764 2°52.556 12 327 16.2 102450 43
2010-07-06 07:13:14 51°17.783 2°52.552 13.7 328 16.2 102450 43
2010-07-06 07:13:19 51°17.802 2°52.548 14 331 16.1 102470 43
2010-07-06 07:13:23 51°17.817 2°52.545 13.2 329 16.1 102470 43
2010-07-06 07:13:29 51°17.84 2°52.54 13 329 16.1 102460 42
2010-07-06 07:13:34 51°17.859 2°52.539 12.4 329 16.1 102460 42
2010-07-06 07:13:39 51°17.879 2°52.537 13.2 329 16.1 102460 43
2010-07-06 07:13:44 51°17.898 2°52.536 13.9 329 16.1 102460 43
2010-07-06 07:13:49 51°17.917 2°52.537 12.3 328 16.1 102450 42
2010-07-06 07:13:54 51°17.937 2°52.536 11.6 330 16.1 102450 42
2010-07-06 07:13:59 51°17.956 2°52.538 11.6 329 16.1 102460 42
2010-07-06 07:14:03 51°17.971 2°52.537 11.2 329 16.1 102460 42
2010-07-06 07:14:09 51°17.994 2°52.539 12.9 329 16.1 102450 43
2010-07-06 07:14:14 51°18.013 2°52.54 11.5 327 16.1 102450 43
2010-07-06 07:14:19 51°18.033 2°52.541 12.1 328 16.1 102460 43
2010-07-06 07:14:23 51°18.048 2°52.542 13.1 328 16.1 102460 43
2010-07-06 07:14:27 51°18.064 2°52.543 12.4 328 16.1 102470 43
2010-07-06 07:14:33 51°18.087 2°52.545 12.9 327 16.1 102470 43
2010-07-06 07:14:39 51°18.11 2°52.546 13.4 327 16.1 102450 42
2010-07-06 07:14:43 51°18.126 2°52.547 13 327 16.1 102450 42
2010-07-06 07:14:48 51°18.145 2°52.548 14.1 327 16 102460 43
2010-07-06 07:14:54 51°18.168 2°52.55 13.7 326 16 102460 43
2010-07-06 07:14:59 51°18.188 2°52.551 12.3 327 16 102460 41
2010-07-06 07:15:03 51°18.203 2°52.552 12.8 327 16 102460 41
2010-07-06 07:15:08 51°18.222 2°52.553 12.7 327 16.1 102460 43
2010-07-06 07:15:13 51°18.242 2°52.554 12.5 325 16.1 102460 43
2010-07-06 07:15:19 51°18.265 2°52.556 11.8 326 16.1 102450 43
2010-07-06 07:15:24 51°18.284 2°52.556 12.4 328 16.1 102450 43
2010-07-06 07:15:29 51°18.303 2°52.557 11.2 327 16 102450 42
2010-07-06 07:15:34 51°18.323 2°52.559 11.3 326 16 102450 42
2010-07-06 07:15:39 51°18.342 2°52.56 12.6 326 16 102460 42
2010-07-06 07:15:44 51°18.361 2°52.561 11.2 329 16 102460 42
2010-07-06 07:15:49 51°18.38 2°52.562 12.2 328 16 102450 42
2010-07-06 07:15:54 51°18.4 2°52.563 10.4 329 16 102450 42
2010-07-06 07:15:59 51°18.419 2°52.564 12.3 329 16.1 102460 43
2010-07-06 07:16:04 51°18.438 2°52.566 10.5 329 16.1 102460 43
2010-07-06 07:16:09 51°18.457 2°52.566 11.1 328 16.1 102450 43
2010-07-06 07:16:14 51°18.477 2°52.567 12.3 326 16.1 102450 43
2010-07-06 07:16:19 51°18.496 2°52.568 13 327 16.1 102460 43
2010-07-06 07:16:24 51°18.515 2°52.569 13.3 328 16.1 102460 43
2010-07-06 07:16:29 51°18.534 2°52.571 12.7 329 16 102460 43
2010-07-06 07:16:34 51°18.554 2°52.571 13.7 328 16 102460 43
2010-07-06 07:16:39 51°18.573 2°52.572 12.6 328 16 102470 42
2010-07-06 07:16:44 51°18.592 2°52.573 12.9 327 16 102470 42
2010-07-06 07:16:49 51°18.612 2°52.574 13.9 328 16 102460 42
2010-07-06 07:16:54 51°18.631 2°52.574 13.9 328 16 102460 42
2010-07-06 07:16:59 51°18.65 2°52.575 11.2 328 16 102460 42
2010-07-06 07:17:04 51°18.67 2°52.576 12.2 329 16 102460 42
2010-07-06 07:17:09 51°18.689 2°52.577 10.9 328 16 102470 42
2010-07-06 07:17:14 51°18.708 2°52.578 12.2 328 16 102470 42
2010-07-06 07:17:19 51°18.727 2°52.579 11.3 328 16 102460 42
2010-07-06 07:17:24 51°18.747 2°52.58 11.6 328 16 102460 42
2010-07-06 07:17:29 51°18.766 2°52.581 13.1 327 16 102460 42
2010-07-06 07:17:34 51°18.785 2°52.582 12.8 330 16 102460 42
2010-07-06 07:17:39 51°18.805 2°52.582 13.7 328 16 102450 41
2010-07-06 07:17:44 51°18.824 2°52.583 13 329 16 102450 41
2010-07-06 07:17:49 51°18.843 2°52.584 12.5 329 16 102460 42
2010-07-06 07:17:54 51°18.863 2°52.584 12.9 329 16 102460 42
2010-07-06 07:17:59 51°18.882 2°52.585 12.3 329 16 102460 42
2010-07-06 07:18:04 51°18.902 2°52.586 12.5 330 16 102460 42
2010-07-06 07:18:09 51°18.921 2°52.587 12.5 328 16 102470 41
2010-07-06 07:18:14 51°18.941 2°52.587 12.2 329 16 102470 41
2010-07-06 07:18:19 51°18.96 2°52.588 12.7 328 16 102470 41
2010-07-06 07:18:24 51°18.979 2°52.589 10.9 325 16 102470 41
2010-07-06 07:18:29 51°18.998 2°52.589 10.7 327 16 102470 41
2010-07-06 07:18:34 51°19.018 2°52.59 11.3 326 16 102470 41
2010-07-06 07:18:39 51°19.037 2°52.591 12.3 326 16 102450 42
2010-07-06 07:18:44 51°19.056 2°52.591 10.8 327 16 102450 42
2010-07-06 07:18:49 51°19.076 2°52.592 11.4 327 16 102470 43
2010-07-06 07:18:54 51°19.095 2°52.593 12 326 16 102470 43
2010-07-06 07:18:59 51°19.115 2°52.593 12.5 327 16.1 102470 42
2010-07-06 07:19:04 51°19.134 2°52.594 13.6 328 16.1 102470 42
2010-07-06 07:19:09 51°19.154 2°52.595 13.4 328 16.1 102460 42
2010-07-06 07:19:14 51°19.173 2°52.596 12.4 329 16.1 102460 42
2010-07-06 07:19:19 51°19.193 2°52.597 11.5 328 16.1 102470 43
2010-07-06 07:19:24 51°19.212 2°52.599 12.2 325 16.1 102470 43
2010-07-06 07:19:29 51°19.232 2°52.601 13.3 324 16.1 102460 42
2010-07-06 07:19:34 51°19.251 2°52.605 13 326 16.1 102460 42
2010-07-06 07:19:39 51°19.271 2°52.607 13.2 325 16 102470 42
2010-07-06 07:19:44 51°19.29 2°52.611 12.3 325 16 102470 42
2010-07-06 07:19:49 51°19.31 2°52.614 13.4 327 16 102470 43
2010-07-06 07:19:54 51°19.33 2°52.618 12.9 325 16 102470 43
2010-07-06 07:19:59 51°19.349 2°52.622 11.8 325 16 102460 42
2010-07-06 07:20:04 51°19.369 2°52.626 14.1 326 16 102460 42
2010-07-06 07:20:09 51°19.389 2°52.63 11.9 326 16.1 102460 43
2010-07-06 07:20:14 51°19.408 2°52.634 10.7 325 16.1 102460 43
2010-07-06 07:20:19 51°19.428 2°52.638 11.1 324 16 102460 41
2010-07-06 07:20:24 51°19.447 2°52.641 11.1 326 16 102460 41
2010-07-06 07:20:28 51°19.463 2°52.644 11.1 325 16 102460 43
2010-07-06 07:20:34 51°19.487 2°52.649 11.1 326 16 102460 43
2010-07-06 07:20:39 51°19.506 2°52.654 11.7 326 16.1 102460 43
2010-07-06 07:20:44 51°19.526 2°52.658 11.4 326 16.1 102460 43
2010-07-06 07:20:49 51°19.546 2°52.662 11.3 326 16.1 102460 44
2010-07-06 07:20:54 51°19.565 2°52.666 13.2 326 16.1 102460 44
2010-07-06 07:20:59 51°19.585 2°52.67 12.7 327 16.1 102460 44
2010-07-06 07:21:04 51°19.605 2°52.674 12.9 327 16.1 102460 44
2010-07-06 07:21:08 51°19.62 2°52.678 13.3 326 16.1 102460 43
2010-07-06 07:21:14 51°19.644 2°52.682 12.8 326 16.1 102460 43
2010-07-06 07:21:19 51°19.664 2°52.686 12.6 328 16.1 102460 43
2010-07-06 07:21:24 51°19.683 2°52.69 12.4 329 16.1 102460 43
2010-07-06 07:21:29 51°19.703 2°52.694 13.7 329 16.1 102460 42
2010-07-06 07:21:34 51°19.723 2°52.697 10.6 327 16.1 102460 42
2010-07-06 07:21:39 51°19.743 2°52.702 11.6 327 16.1 102450 43
2010-07-06 07:21:44 51°19.763 2°52.706 10.7 328 16.1 102450 43
2010-07-06 07:21:49 51°19.782 2°52.71 11.2 327 16.1 102460 43
2010-07-06 07:21:54 51°19.802 2°52.713 11.5 327 16.1 102460 43
2010-07-06 07:21:59 51°19.822 2°52.717 12.6 324 16.1 102470 43
2010-07-06 07:22:04 51°19.842 2°52.721 11.8 326 16.1 102470 43
2010-07-06 07:22:09 51°19.861 2°52.725 12.8 325 16.1 102470 43
2010-07-06 07:22:14 51°19.881 2°52.729 13.5 326 16.1 102470 43
2010-07-06 07:22:19 51°19.901 2°52.732 12.2 327 16.1 102460 43
2010-07-06 07:22:24 51°19.921 2°52.736 13.4 325 16.1 102460 43
2010-07-06 07:22:29 51°19.941 2°52.74 13.3 326 16.1 102460 43
2010-07-06 07:22:34 51°19.96 2°52.744 13.1 326 16.1 102460 43
2010-07-06 07:22:39 51°19.98 2°52.747 12.3 324 16.1 102460 42
2010-07-06 07:22:44 51°20 2°52.751 13.1 327 16.1 102460 42
2010-07-06 07:22:49 51°20.02 2°52.755 13.1 326 16 102460 42
2010-07-06 07:22:54 51°20.039 2°52.758 11.2 327 16 102460 42
2010-07-06 07:22:59 51°20.059 2°52.762 12.5 327 16 102460 41
2010-07-06 07:23:04 51°20.079 2°52.766 12 326 16 102460 41
2010-07-06 07:23:09 51°20.098 2°52.77 12.4 325 16.1 102460 42
2010-07-06 07:23:14 51°20.118 2°52.773 11.1 324 16.1 102460 42
2010-07-06 07:23:19 51°20.137 2°52.777 12.1 324 16 102460 43
2010-07-06 07:23:24 51°20.157 2°52.78 13.3 323 16 102460 43
2010-07-06 07:23:29 51°20.176 2°52.784 13.7 323 16 102460 42
2010-07-06 07:23:34 51°20.196 2°52.789 14.9 323 16 102460 42
2010-07-06 07:23:39 51°20.215 2°52.793 12.9 325 16 102460 43
2010-07-06 07:23:44 51°20.234 2°52.798 12.5 326 16 102460 43
2010-07-06 07:23:49 51°20.254 2°52.804 13.9 325 16 102450 43
2010-07-06 07:23:54 51°20.273 2°52.809 12.2 324 16 102450 43
2010-07-06 07:23:59 51°20.292 2°52.815 12.6 324 16 102450 43
2010-07-06 07:24:04 51°20.311 2°52.821 12.6 322 16 102450 43
2010-07-06 07:24:08 51°20.327 2°52.826 14 323 16 102450 42
2010-07-06 07:24:14 51°20.35 2°52.834 14.3 322 16 102450 42
2010-07-06 07:24:19 51°20.369 2°52.841 12.2 324 16 102460 42
2010-07-06 07:24:24 51°20.388 2°52.848 12.1 323 16 102460 42
2010-07-06 07:24:29 51°20.408 2°52.854 11.3 324 16 102460 42
2010-07-06 07:24:34 51°20.427 2°52.86 10.8 325 16 102460 42
2010-07-06 07:24:39 51°20.446 2°52.867 11 323 16 102450 43
2010-07-06 07:24:44 51°20.466 2°52.874 12.5 323 16 102450 43
2010-07-06 07:24:49 51°20.485 2°52.88 13.1 323 16 102460 42
2010-07-06 07:24:54 51°20.504 2°52.886 14.1 323 16 102460 42
2010-07-06 07:24:59 51°20.523 2°52.892 12.2 323 16 102460 42
2010-07-06 07:25:04 51°20.543 2°52.898 12.6 322 16 102460 42
2010-07-06 07:25:09 51°20.562 2°52.905 12.7 323 16 102450 43
2010-07-06 07:25:14 51°20.581 2°52.911 13.6 324 16 102450 43
2010-07-06 07:25:19 51°20.6 2°52.917 13.1 323 16 102470 43
2010-07-06 07:25:24 51°20.62 2°52.923 13.1 323 16 102470 43
2010-07-06 07:25:28 51°20.635 2°52.928 13.4 324 16 102460 42
2010-07-06 07:25:34 51°20.658 2°52.935 13 323 16 102460 42
2010-07-06 07:25:39 51°20.677 2°52.941 14.5 323 16 102450 42
2010-07-06 07:25:44 51°20.696 2°52.947 12.2 322 16 102450 42
2010-07-06 07:25:49 51°20.716 2°52.953 13.3 323 16 102460 42
2010-07-06 07:25:54 51°20.735 2°52.959 14.4 323 16 102460 42
2010-07-06 07:25:59 51°20.754 2°52.965 12.4 325 16 102470 43
2010-07-06 07:26:04 51°20.773 2°52.971 12 323 16 102470 43
2010-07-06 07:26:09 51°20.792 2°52.977 12.7 323 16.1 102460 42
2010-07-06 07:26:14 51°20.811 2°52.983 12.3 323 16.1 102460 42
2010-07-06 07:26:19 51°20.831 2°52.989 11.9 326 16.1 102460 43
2010-07-06 07:26:24 51°20.85 2°52.995 10 327 16.1 102460 43
2010-07-06 07:26:29 51°20.869 2°53.001 10.4 324 16.1 102470 43
2010-07-06 07:26:34 51°20.888 2°53.007 11.2 324 16.1 102470 43
2010-07-06 07:26:39 51°20.908 2°53.013 10.8 323 16.1 102470 43
2010-07-06 07:26:44 51°20.927 2°53.019 11.8 325 16.1 102470 43
2010-07-06 07:26:49 51°20.946 2°53.025 11.3 325 16.1 102470 43
2010-07-06 07:26:54 51°20.965 2°53.031 12.3 326 16.1 102470 43
2010-07-06 07:26:59 51°20.985 2°53.036 13 325 16.1 102470 43
2010-07-06 07:27:04 51°21.004 2°53.042 12.9 323 16.1 102470 43
2010-07-06 07:27:09 51°21.023 2°53.048 11.8 323 16.1 102470 43
2010-07-06 07:27:14 51°21.042 2°53.054 12.9 324 16.1 102470 43
2010-07-06 07:27:19 51°21.061 2°53.059 13.2 322 16.1 102470 42
2010-07-06 07:27:24 51°21.08 2°53.066 13.5 323 16.1 102470 42
2010-07-06 07:27:29 51°21.1 2°53.071 12.8 323 16.1 102470 43
2010-07-06 07:27:34 51°21.119 2°53.077 14 323 16.1 102470 43
2010-07-06 07:27:39 51°21.138 2°53.082 13.1 322 16.1 102480 43
2010-07-06 07:27:44 51°21.157 2°53.089 13.4 324 16.1 102480 43
2010-07-06 07:27:49 51°21.177 2°53.094 13.8 324 16.1 102470 42
2010-07-06 07:27:54 51°21.196 2°53.1 12.1 323 16.1 102470 42
2010-07-06 07:27:59 51°21.215 2°53.106 13.6 324 16.1 102460 43
2010-07-06 07:28:04 51°21.234 2°53.111 13.4 324 16.1 102460 43
2010-07-06 07:28:08 51°21.249 2°53.116 12 324 16.1 102460 42
2010-07-06 07:28:14 51°21.272 2°53.122 12.7 324 16.1 102460 42
2010-07-06 07:28:19 51°21.291 2°53.127 13.2 323 16.1 102460 41
2010-07-06 07:28:24 51°21.311 2°53.133 13.7 322 16.1 102460 41
2010-07-06 07:28:29 51°21.33 2°53.139 12.1 322 16.1 102460 42
2010-07-06 07:28:34 51°21.349 2°53.145 11.2 325 16.1 102460 42
2010-07-06 07:28:39 51°21.369 2°53.151 10.5 323 16 102470 42
2010-07-06 07:28:44 51°21.388 2°53.157 11.2 323 16 102470 42
2010-07-06 07:28:48 51°21.403 2°53.161 11.3 324 16.1 102470 42
2010-07-06 07:28:54 51°21.426 2°53.168 11.3 324 16.1 102470 42
2010-07-06 07:28:59 51°21.446 2°53.174 11.3 324 16.1 102470 43
2010-07-06 07:29:04 51°21.465 2°53.18 11.2 323 16.1 102470 43
2010-07-06 07:29:08 51°21.48 2°53.184 13.8 323 16.1 102470 43
2010-07-06 07:29:14 51°21.503 2°53.191 12.3 324 16.1 102470 43
2010-07-06 07:29:18 51°21.519 2°53.195 12.7 324 16.1 102470 42
2010-07-06 07:29:24 51°21.542 2°53.202 12.6 326 16.1 102470 42
2010-07-06 07:29:28 51°21.557 2°53.207 11.6 327 16.1 102470 42
2010-07-06 07:29:33 51°21.576 2°53.213 13 326 16.1 102470 42
2010-07-06 07:29:39 51°21.599 2°53.219 12.6 326 16.1 102470 43
2010-07-06 07:29:44 51°21.619 2°53.225 13.4 322 16.1 102470 43
2010-07-06 07:29:49 51°21.638 2°53.231 11.7 322 16.1 102470 43
2010-07-06 07:29:54 51°21.657 2°53.238 13.5 323 16.1 102470 43
2010-07-06 07:29:59 51°21.676 2°53.245 12 322 16.1 102480 43
2010-07-06 07:30:04 51°21.695 2°53.252 13.4 323 16.1 102480 43
2010-07-06 07:30:09 51°21.714 2°53.261 11.5 323 16.1 102480 43
2010-07-06 07:30:14 51°21.733 2°53.268 13.6 321 16.1 102480 43
2010-07-06 07:30:19 51°21.752 2°53.278 12.3 323 16.1 102460 42
2010-07-06 07:30:24 51°21.771 2°53.285 12.5 321 16.1 102460 42
2010-07-06 07:30:29 51°21.789 2°53.295 13.5 321 16.1 102460 43
2010-07-06 07:30:34 51°21.809 2°53.302 13.4 320 16.1 102460 43
2010-07-06 07:30:39 51°21.827 2°53.311 12.7 320 16.1 102470 43
2010-07-06 07:30:44 51°21.846 2°53.32 13.3 321 16.1 102470 43
2010-07-06 07:30:49 51°21.865 2°53.328 14 322 16.1 102460 43
2010-07-06 07:30:53 51°21.88 2°53.335 11.7 323 16.1 102460 43
2010-07-06 07:30:59 51°21.903 2°53.345 12.1 324 16 102460 42
2010-07-06 07:31:04 51°21.922 2°53.354 11 323 16 102460 42
2010-07-06 07:31:09 51°21.941 2°53.362 11.3 324 16.1 102460 43
2010-07-06 07:31:14 51°21.959 2°53.371 11.6 324 16.1 102460 43
2010-07-06 07:31:19 51°21.978 2°53.38 12 323 16.1 102460 43
2010-07-06 07:31:24 51°21.997 2°53.388 12.1 322 16.1 102460 43
2010-07-06 07:31:29 51°22.016 2°53.397 12 321 16.1 102470 42
2010-07-06 07:31:34 51°22.035 2°53.405 12.8 320 16.1 102470 42
2010-07-06 07:31:39 51°22.054 2°53.414 12.3 320 16.1 102470 43
2010-07-06 07:31:44 51°22.073 2°53.423 12.6 323 16.1 102470 43
2010-07-06 07:31:49 51°22.091 2°53.432 11.8 321 16.1 102460 43
2010-07-06 07:31:54 51°22.11 2°53.44 12.9 319 16.1 102460 43
2010-07-06 07:31:59 51°22.129 2°53.448 11.5 321 16 102460 42
2010-07-06 07:32:04 51°22.148 2°53.457 13.4 322 16 102460 42
2010-07-06 07:32:09 51°22.167 2°53.466 13.4 322 16 102470 43
2010-07-06 07:32:13 51°22.182 2°53.472 13.4 322 16 102470 43
2010-07-06 07:32:18 51°22.201 2°53.48 14.2 321 16 102470 42
2010-07-06 07:32:23 51°22.22 2°53.488 13.9 322 16 102470 42
2010-07-06 07:32:29 51°22.242 2°53.499 13.3 322 16 102470 42
2010-07-06 07:32:34 51°22.261 2°53.507 13.4 323 16 102470 42
2010-07-06 07:32:39 51°22.28 2°53.515 13.9 323 16 102460 42
2010-07-06 07:32:44 51°22.299 2°53.521 12.4 323 16 102460 42
2010-07-06 07:32:49 51°22.318 2°53.528 12.7 323 16 102470 42
2010-07-06 07:32:54 51°22.338 2°53.532 12 325 16 102470 42
2010-07-06 07:32:59 51°22.357 2°53.537 11.3 324 16 102460 42
2010-07-06 07:33:04 51°22.376 2°53.541 10.4 323 16 102460 42
2010-07-06 07:33:09 51°22.395 2°53.544 11.7 324 16 102460 43
2010-07-06 07:33:14 51°22.415 2°53.549 10.7 323 16 102460 43
2010-07-06 07:33:19 51°22.434 2°53.552 12.2 324 16 102460 43
2010-07-06 07:33:24 51°22.453 2°53.555 11.5 323 16 102460 43
2010-07-06 07:33:29 51°22.473 2°53.557 11.1 325 16 102470 43
2010-07-06 07:33:34 51°22.492 2°53.56 12.5 324 16 102470 43
2010-07-06 07:33:39 51°22.511 2°53.562 12.6 324 16 102480 41
2010-07-06 07:33:44 51°22.531 2°53.565 12.7 325 16 102480 41
2010-07-06 07:33:49 51°22.55 2°53.568 14.6 325 16 102470 42
2010-07-06 07:33:54 51°22.57 2°53.572 13.6 326 16 102470 42
2010-07-06 07:33:59 51°22.589 2°53.576 13 325 16 102480 43
2010-07-06 07:34:04 51°22.608 2°53.579 12.4 326 16 102480 43
2010-07-06 07:34:08 51°22.624 2°53.581 13.4 325 16 102490 43
2010-07-06 07:34:14 51°22.647 2°53.584 13.8 325 16 102490 43
2010-07-06 07:34:18 51°22.663 2°53.585 12.7 325 16 102480 42
2010-07-06 07:34:23 51°22.682 2°53.587 11.8 327 16 102480 42
2010-07-06 07:34:28 51°22.701 2°53.588 11.3 328 16 102480 43
2010-07-06 07:34:34 51°22.725 2°53.588 11.5 328 16 102480 43
2010-07-06 07:34:38 51°22.74 2°53.588 11 327 16 102480 42
2010-07-06 07:34:44 51°22.763 2°53.587 12.7 327 16 102480 42
2010-07-06 07:34:49 51°22.783 2°53.586 11.9 326 16 102480 42
2010-07-06 07:34:54 51°22.802 2°53.583 13.3 328 16 102480 42
2010-07-06 07:34:59 51°22.821 2°53.582 12.4 328 15.9 102480 42
2010-07-06 07:35:03 51°22.836 2°53.58 12.6 328 15.9 102480 42
2010-07-06 07:35:09 51°22.86 2°53.578 13.3 328 15.9 102480 43
2010-07-06 07:35:14 51°22.879 2°53.575 14.2 328 15.9 102480 43
2010-07-06 07:35:19 51°22.898 2°53.572 12.7 330 15.9 102480 43
2010-07-06 07:35:24 51°22.917 2°53.57 13.2 329 15.9 102480 43
2010-07-06 07:35:29 51°22.936 2°53.568 12.9 328 15.9 102480 42
2010-07-06 07:35:34 51°22.956 2°53.566 10.9 326 15.9 102480 42
2010-07-06 07:35:39 51°22.975 2°53.563 11.7 329 15.9 102480 42
2010-07-06 07:35:43 51°22.991 2°53.562 11.5 330 15.9 102480 42
2010-07-06 07:35:48 51°23.01 2°53.559 11.3 330 15.9 102490 43
2010-07-06 07:35:53 51°23.029 2°53.557 10.5 329 15.9 102490 43
2010-07-06 07:35:58 51°23.049 2°53.555 11.1 329 15.8 102490 43
2010-07-06 07:36:04 51°23.072 2°53.552 12.7 326 15.8 102490 43
2010-07-06 07:36:09 51°23.092 2°53.55 13.4 328 15.8 102490 42
2010-07-06 07:36:14 51°23.111 2°53.548 13 326 15.8 102490 42
2010-07-06 07:36:19 51°23.131 2°53.547 14.5 326 15.9 102490 42
2010-07-06 07:36:24 51°23.15 2°53.545 14.7 327 15.9 102490 42
2010-07-06 07:36:28 51°23.166 2°53.544 13.9 328 15.9 102490 43
2010-07-06 07:36:34 51°23.189 2°53.541 13.2 328 15.9 102490 43
2010-07-06 07:36:39 51°23.208 2°53.54 13.2 328 15.8 102480 42
2010-07-06 07:36:44 51°23.228 2°53.538 14.6 328 15.8 102480 42
2010-07-06 07:36:49 51°23.247 2°53.536 13.8 330 15.8 102490 43
2010-07-06 07:36:54 51°23.267 2°53.534 11.8 330 15.8 102490 43
2010-07-06 07:36:59 51°23.287 2°53.532 12.2 331 15.8 102490 42
2010-07-06 07:37:04 51°23.306 2°53.53 11.1 328 15.8 102490 42
2010-07-06 07:37:09 51°23.326 2°53.528 12.2 329 15.8 102490 43
2010-07-06 07:37:14 51°23.346 2°53.526 13 331 15.8 102490 43
2010-07-06 07:37:19 51°23.365 2°53.525 13 329 15.8 102490 42
2010-07-06 07:37:24 51°23.385 2°53.523 13.7 329 15.8 102490 42
2010-07-06 07:37:28 51°23.4 2°53.521 14.1 329 15.8 102500 42
2010-07-06 07:37:34 51°23.424 2°53.519 13.8 328 15.8 102500 42
2010-07-06 07:37:39 51°23.443 2°53.517 13.6 329 15.8 102490 42
2010-07-06 07:37:44 51°23.463 2°53.516 13.2 327 15.8 102490 42
2010-07-06 07:37:49 51°23.482 2°53.514 13.9 328 15.8 102500 42
2010-07-06 07:37:54 51°23.502 2°53.513 13.2 329 15.8 102500 42
2010-07-06 07:37:59 51°23.522 2°53.511 13.1 328 15.8 102500 43
2010-07-06 07:38:04 51°23.542 2°53.509 13.2 328 15.8 102500 43
2010-07-06 07:38:09 51°23.561 2°53.507 13.5 328 15.8 102490 42
2010-07-06 07:38:14 51°23.581 2°53.506 12.6 327 15.8 102490 42
2010-07-06 07:38:19 51°23.6 2°53.504 12.3 327 15.8 102490 43
2010-07-06 07:38:24 51°23.62 2°53.502 12 327 15.8 102490 43
2010-07-06 07:38:29 51°23.64 2°53.501 11.6 328 15.8 102490 43
2010-07-06 07:38:34 51°23.66 2°53.5 11.8 328 15.8 102490 43
2010-07-06 07:38:39 51°23.68 2°53.498 11.6 328 15.8 102490 43
2010-07-06 07:38:44 51°23.7 2°53.497 12.9 328 15.8 102490 43
2010-07-06 07:38:48 51°23.715 2°53.495 13.6 329 15.8 102490 42
2010-07-06 07:38:54 51°23.739 2°53.493 14 327 15.8 102490 42
2010-07-06 07:38:59 51°23.758 2°53.491 12.5 327 15.7 102510 41
2010-07-06 07:39:04 51°23.778 2°53.49 13 328 15.7 102510 41
2010-07-06 07:39:09 51°23.798 2°53.488 12.5 329 15.7 102490 42
2010-07-06 07:39:14 51°23.817 2°53.487 11.2 327 15.7 102490 42
2010-07-06 07:39:19 51°23.837 2°53.485 11.7 328 15.7 102500 42
2010-07-06 07:39:24 51°23.856 2°53.484 13.8 329 15.7 102500 42
2010-07-06 07:39:29 51°23.877 2°53.483 12.2 329 15.7 102490 42
2010-07-06 07:39:34 51°23.897 2°53.481 12.3 329 15.7 102490 42
2010-07-06 07:39:39 51°23.917 2°53.479 12.7 328 15.8 102490 43
2010-07-06 07:39:44 51°23.937 2°53.478 13.6 329 15.8 102490 43
2010-07-06 07:39:49 51°23.956 2°53.476 12.9 329 15.7 102490 42
2010-07-06 07:39:54 51°23.976 2°53.474 12.8 329 15.7 102490 42
2010-07-06 07:39:59 51°23.996 2°53.471 13.3 328 15.7 102500 42
2010-07-06 07:40:04 51°24.016 2°53.47 14.1 327 15.7 102500 42
2010-07-06 07:40:09 51°24.035 2°53.467 13.4 327 15.7 102490 42
2010-07-06 07:40:14 51°24.055 2°53.467 13.7 327 15.7 102490 42
2010-07-06 07:40:19 51°24.075 2°53.464 13.7 327 15.7 102490 43
2010-07-06 07:40:24 51°24.095 2°53.463 12.3 328 15.7 102490 43
2010-07-06 07:40:29 51°24.115 2°53.461 13 327 15.7 102490 43
2010-07-06 07:40:34 51°24.135 2°53.459 11.5 328 15.7 102490 43
2010-07-06 07:40:39 51°24.154 2°53.457 11.4 329 15.7 102500 43
2010-07-06 07:40:44 51°24.173 2°53.455 11.7 329 15.7 102500 43
2010-07-06 07:40:49 51°24.194 2°53.453 12 328 15.7 102490 43
2010-07-06 07:40:53 51°24.21 2°53.452 13.2 329 15.7 102490 43
2010-07-06 07:40:59 51°24.234 2°53.45 12.7 330 15.7 102490 43
2010-07-06 07:41:04 51°24.254 2°53.448 13.6 329 15.7 102490 43
2010-07-06 07:41:09 51°24.274 2°53.447 14.3 330 15.7 102510 43
2010-07-06 07:41:14 51°24.294 2°53.444 13.9 329 15.7 102510 43
2010-07-06 07:41:19 51°24.313 2°53.443 13.5 328 15.7 102480 42
2010-07-06 07:41:24 51°24.333 2°53.44 12.8 329 15.7 102480 42
2010-07-06 07:41:29 51°24.352 2°53.439 13.8 328 15.7 102500 42
2010-07-06 07:41:34 51°24.371 2°53.436 12.5 327 15.7 102500 42
2010-07-06 07:41:39 51°24.391 2°53.434 11.2 328 15.6 102500 41
2010-07-06 07:41:44 51°24.411 2°53.433 10.9 327 15.6 102500 41
2010-07-06 07:41:49 51°24.431 2°53.43 12.9 327 15.7 102500 42
2010-07-06 07:41:53 51°24.447 2°53.429 11.8 327 15.7 102500 42
2010-07-06 07:41:59 51°24.47 2°53.426 12.3 327 15.7 102500 43
2010-07-06 07:42:04 51°24.489 2°53.424 14.8 325 15.7 102500 43
2010-07-06 07:42:09 51°24.509 2°53.423 13 326 15.7 102490 42
2010-07-06 07:42:13 51°24.525 2°53.421 13.5 324 15.7 102490 42
2010-07-06 07:42:19 51°24.549 2°53.419 12.7 325 15.7 102500 43
2010-07-06 07:42:24 51°24.569 2°53.418 13.6 326 15.7 102500 43
2010-07-06 07:42:29 51°24.589 2°53.415 12.6 328 15.7 102500 43
2010-07-06 07:42:34 51°24.609 2°53.414 14.3 328 15.7 102500 43
2010-07-06 07:42:38 51°24.625 2°53.412 13.8 326 15.7 102490 43
2010-07-06 07:42:44 51°24.648 2°53.41 12.7 327 15.7 102490 43
2010-07-06 07:42:48 51°24.664 2°53.408 13.8 328 15.7 102500 43
2010-07-06 07:42:54 51°24.687 2°53.405 12 328 15.7 102500 43
2010-07-06 07:42:59 51°24.707 2°53.403 11 328 15.7 102510 42
2010-07-06 07:43:04 51°24.727 2°53.401 12.3 327 15.7 102510 42
2010-07-06 07:43:09 51°24.747 2°53.4 10.6 329 15.7 102490 43
2010-07-06 07:43:14 51°24.767 2°53.398 12.7 327 15.7 102490 43
2010-07-06 07:43:19 51°24.787 2°53.395 11.9 328 15.7 102490 43
2010-07-06 07:43:24 51°24.807 2°53.393 11.6 327 15.7 102490 43
2010-07-06 07:43:29 51°24.826 2°53.391 12.1 328 15.7 102500 43
2010-07-06 07:43:34 51°24.846 2°53.388 13.2 328 15.7 102500 43
2010-07-06 07:43:39 51°24.866 2°53.386 13.1 328 15.7 102500 42
2010-07-06 07:43:44 51°24.886 2°53.384 13 326 15.7 102500 42
2010-07-06 07:43:49 51°24.906 2°53.382 12.4 327 15.7 102500 43
2010-07-06 07:43:54 51°24.927 2°53.378 15.1 327 15.7 102500 43
2010-07-06 07:43:59 51°24.947 2°53.377 12.6 329 15.7 102500 43
2010-07-06 07:44:03 51°24.963 2°53.374 14.7 327 15.7 102500 43
2010-07-06 07:44:09 51°24.987 2°53.373 10.5 329 15.7 102500 42
2010-07-06 07:44:14 51°25.007 2°53.37 12.1 327 15.7 102500 42
2010-07-06 07:44:19 51°25.027 2°53.369 12.9 328 15.7 102500 42
2010-07-06 07:44:24 51°25.047 2°53.366 11.9 327 15.7 102500 42
2010-07-06 07:44:29 51°25.068 2°53.364 11.1 328 15.7 102500 43
2010-07-06 07:44:34 51°25.087 2°53.362 11.2 329 15.7 102500 43
2010-07-06 07:44:39 51°25.107 2°53.36 13.5 328 15.7 102500 43
2010-07-06 07:44:44 51°25.127 2°53.358 13.9 325 15.7 102500 43
2010-07-06 07:44:49 51°25.147 2°53.355 13.1 327 15.7 102490 43
2010-07-06 07:44:54 51°25.167 2°53.353 13.1 328 15.7 102490 43
2010-07-06 07:44:59 51°25.187 2°53.35 13.6 327 15.7 102500 42
2010-07-06 07:45:03 51°25.203 2°53.348 14.3 327 15.7 102500 42
2010-07-06 07:45:09 51°25.227 2°53.345 12.9 327 15.6 102510 42
2010-07-06 07:45:14 51°25.246 2°53.343 13.4 327 15.6 102510 42
2010-07-06 07:45:19 51°25.266 2°53.339 12.1 328 15.6 102510 43
2010-07-06 07:45:23 51°25.282 2°53.338 12.5 328 15.6 102510 43
2010-07-06 07:45:28 51°25.302 2°53.334 11.1 328 15.6 102500 43
2010-07-06 07:45:34 51°25.326 2°53.331 10.8 326 15.6 102500 43
2010-07-06 07:45:39 51°25.345 2°53.329 11.8 327 15.6 102490 43
2010-07-06 07:45:43 51°25.361 2°53.328 10.6 327 15.6 102490 43
2010-07-06 07:45:48 51°25.381 2°53.325 11.3 327 15.6 102500 43
2010-07-06 07:45:53 51°25.4 2°53.324 11.7 325 15.6 102500 43
2010-07-06 07:45:59 51°25.424 2°53.319 10.5 326 15.7 102500 42
2010-07-06 07:46:03 51°25.439 2°53.318 11.8 324 15.7 102500 42
2010-07-06 07:46:08 51°25.459 2°53.315 12.6 325 15.6 102500 42
2010-07-06 07:46:13 51°25.478 2°53.313 11.6 325 15.6 102500 42
2010-07-06 07:46:18 51°25.498 2°53.311 13.5 328 15.6 102500 42
2010-07-06 07:46:23 51°25.517 2°53.308 13.5 330 15.6 102500 42
2010-07-06 07:46:28 51°25.537 2°53.305 12.8 329 15.6 102500 42
2010-07-06 07:46:33 51°25.556 2°53.302 12.2 328 15.6 102500 42
2010-07-06 07:46:38 51°25.576 2°53.3 12.8 328 15.6 102500 42
2010-07-06 07:46:43 51°25.595 2°53.298 12 329 15.6 102500 42
2010-07-06 07:46:48 51°25.616 2°53.296 12.8 329 15.6 102500 43
2010-07-06 07:46:53 51°25.636 2°53.291 12.3 327 15.6 102500 43
2010-07-06 07:46:58 51°25.655 2°53.288 11.4 327 15.6 102500 41
2010-07-06 07:47:03 51°25.674 2°53.287 13.8 325 15.6 102500 41
2010-07-06 07:47:08 51°25.693 2°53.284 12.1 326 15.6 102510 42
2010-07-06 07:47:14 51°25.716 2°53.281 12 325 15.6 102510 42
2010-07-06 07:47:19 51°25.736 2°53.279 11.3 327 15.6 102510 42
2010-07-06 07:47:23 51°25.752 2°53.278 11.1 325 15.6 102510 42
2010-07-06 07:47:28 51°25.771 2°53.276 10.8 327 15.6 102500 43
2010-07-06 07:47:34 51°25.794 2°53.273 11.1 326 15.6 102500 43
2010-07-06 07:47:39 51°25.814 2°53.271 11.5 327 15.6 102500 43
2010-07-06 07:47:43 51°25.829 2°53.268 14.4 327 15.6 102500 43
2010-07-06 07:47:48 51°25.849 2°53.266 13.3 327 15.6 102500 43
2010-07-06 07:47:53 51°25.869 2°53.264 13.7 328 15.6 102500 43
2010-07-06 07:47:59 51°25.892 2°53.261 12.8 329 15.6 102500 42
2010-07-06 07:48:03 51°25.908 2°53.259 12.5 330 15.6 102500 42
2010-07-06 07:48:08 51°25.927 2°53.257 12.4 327 15.6 102500 43
2010-07-06 07:48:13 51°25.947 2°53.254 12.7 327 15.6 102500 43
2010-07-06 07:48:19 51°25.97 2°53.251 13.1 327 15.6 102490 42
2010-07-06 07:48:23 51°25.986 2°53.249 13.5 328 15.6 102490 42
2010-07-06 07:48:28 51°26.006 2°53.247 15 327 15.6 102500 43
2010-07-06 07:48:33 51°26.025 2°53.244 13.3 326 15.6 102500 43
2010-07-06 07:48:38 51°26.045 2°53.241 13.5 325 15.7 102500 43
2010-07-06 07:48:43 51°26.065 2°53.239 12.2 326 15.7 102500 43
2010-07-06 07:48:48 51°26.084 2°53.236 13 327 15.7 102500 42
2010-07-06 07:48:53 51°26.104 2°53.235 11.4 327 15.7 102500 42
2010-07-06 07:48:58 51°26.124 2°53.232 10.9 325 15.6 102490 43
2010-07-06 07:49:03 51°26.143 2°53.231 10.9 324 15.6 102490 43
2010-07-06 07:49:08 51°26.163 2°53.228 12.3 325 15.6 102500 42
2010-07-06 07:49:14 51°26.186 2°53.226 11.6 327 15.6 102500 42
2010-07-06 07:49:19 51°26.206 2°53.221 11.7 328 15.6 102500 43
2010-07-06 07:49:23 51°26.221 2°53.22 11.7 328 15.6 102500 43
2010-07-06 07:49:28 51°26.241 2°53.216 14.1 278 15.6 102500 43
2010-07-06 07:49:34 51°26.264 2°53.213 13.1 327 15.6 102500 43
2010-07-06 07:49:39 51°26.283 2°53.209 12 327 15.6 102500 41
2010-07-06 07:49:43 51°26.299 2°53.207 13.5 327 15.6 102500 41
2010-07-06 07:49:48 51°26.319 2°53.204 12.8 276 15.6 102500 42
2010-07-06 07:49:54 51°26.342 2°53.2 14.1 328 15.6 102500 42
2010-07-06 07:49:59 51°26.361 2°53.198 12.9 284 15.6 102500 43
2010-07-06 07:50:03 51°26.377 2°53.196 12.2 327 15.6 102500 43
2010-07-06 07:50:08 51°26.397 2°53.193 12.7 279 15.6 102500 42
2010-07-06 07:50:14 51°26.42 2°53.19 11.9 327 15.6 102500 42
2010-07-06 07:50:19 51°26.439 2°53.186 12.1 279 15.5 102490 43
2010-07-06 07:50:23 51°26.455 2°53.185 12.4 328 15.5 102490 43
2010-07-06 07:50:28 51°26.474 2°53.181 10.8 276 15.5 102500 42
2010-07-06 07:50:34 51°26.497 2°53.179 10.7 327 15.5 102500 42
2010-07-06 07:50:39 51°26.517 2°53.176 12.3 328 15.5 102500 42
2010-07-06 07:50:43 51°26.532 2°53.174 11.5 326 15.5 102500 42
2010-07-06 07:50:48 51°26.552 2°53.171 11.3 282 15.5 102510 43
2010-07-06 07:50:54 51°26.575 2°53.168 11.8 327 15.5 102510 43
2010-07-06 07:50:59 51°26.594 2°53.164 11.2 326 15.5 102500 42
2010-07-06 07:51:03 51°26.61 2°53.162 12.2 326 15.5 102500 42
2010-07-06 07:51:08 51°26.63 2°53.159 12.1 283 15.6 102500 42
2010-07-06 07:51:14 51°26.653 2°53.156 13.4 326 15.6 102500 42
2010-07-06 07:51:19 51°26.673 2°53.152 12.3 326 15.5 102500 42
2010-07-06 07:51:23 51°26.688 2°53.15 12.4 326 15.5 102500 42
2010-07-06 07:51:28 51°26.707 2°53.146 14.6 279 15.6 102500 43
2010-07-06 07:51:34 51°26.731 2°53.142 11.7 328 15.6 102500 43
2010-07-06 07:51:39 51°26.75 2°53.139 12.9 330 15.6 102510 42
2010-07-06 07:51:43 51°26.765 2°53.136 13.9 327 15.6 102510 42
2010-07-06 07:51:49 51°26.789 2°53.132 13.8 280 15.6 102510 42
2010-07-06 07:51:54 51°26.808 2°53.129 13.6 327 15.6 102510 42
2010-07-06 07:51:59 51°26.828 2°53.125 13 327 15.6 102500 42
2010-07-06 07:52:03 51°26.843 2°53.123 12.4 329 15.6 102500 42
2010-07-06 07:52:08 51°26.863 2°53.12 11.4 281 15.6 102500 43
2010-07-06 07:52:14 51°26.886 2°53.116 11.2 329 15.6 102500 43
2010-07-06 07:52:19 51°26.906 2°53.113 11.4 329 15.5 102500 41
2010-07-06 07:52:23 51°26.922 2°53.11 10.6 327 15.5 102500 41
2010-07-06 07:52:28 51°26.941 2°53.108 10.5 281 15.5 102500 43
2010-07-06 07:52:34 51°26.964 2°53.103 10.8 329 15.5 102500 43
2010-07-06 07:52:39 51°26.984 2°53.1 10.8 327 15.5 102510 43
2010-07-06 07:52:43 51°27 2°53.097 14.2 329 15.5 102510 43
2010-07-06 07:52:48 51°27.019 2°53.094 12.2 276 15.6 102500 43
2010-07-06 07:52:53 51°27.039 2°53.091 12.7 327 15.6 102500 43
2010-07-06 07:52:59 51°27.063 2°53.087 12.6 277 15.6 102510 42
2010-07-06 07:53:03 51°27.078 2°53.085 12.4 328 15.6 102510 42
2010-07-06 07:53:08 51°27.098 2°53.081 13.8 328 15.6 102510 43
2010-07-06 07:53:13 51°27.117 2°53.078 13 327 15.6 102510 43
2010-07-06 07:53:19 51°27.141 2°53.075 12.6 277 15.6 102500 43
2010-07-06 07:53:23 51°27.156 2°53.072 12.3 325 15.6 102500 43
2010-07-06 07:53:28 51°27.176 2°53.069 12.2 278 15.6 102510 42
2010-07-06 07:53:34 51°27.2 2°53.064 13.2 326 15.6 102510 42
2010-07-06 07:53:39 51°27.219 2°53.061 12.8 326 15.5 102500 43
2010-07-06 07:53:43 51°27.235 2°53.058 12.1 327 15.5 102500 43
2010-07-06 07:53:48 51°27.254 2°53.055 12.2 282 15.5 102500 42
2010-07-06 07:53:54 51°27.278 2°53.052 11.4 327 15.5 102500 42
2010-07-06 07:53:59 51°27.298 2°53.049 11 279 15.5 102500 42
2010-07-06 07:54:03 51°27.314 2°53.047 10.8 328 15.5 102500 42
2010-07-06 07:54:08 51°27.333 2°53.044 11.3 279 15.5 102500 42
2010-07-06 07:54:14 51°27.357 2°53.04 13.5 328 15.5 102500 42
2010-07-06 07:54:19 51°27.377 2°53.037 12.9 329 15.5 102500 42
2010-07-06 07:54:23 51°27.393 2°53.035 11.2 327 15.5 102500 42
2010-07-06 07:54:28 51°27.413 2°53.033 11.4 329 15.5 102510 42
2010-07-06 07:54:34 51°27.436 2°53.029 14.1 329 15.5 102510 42
2010-07-06 07:54:39 51°27.456 2°53.028 13.5 328 15.5 102500 42
2010-07-06 07:54:43 51°27.471 2°53.025 13.7 327 15.5 102500 42
2010-07-06 07:54:48 51°27.49 2°53.023 13.4 283 15.5 102500 43
2010-07-06 07:54:54 51°27.514 2°53.02 12.1 328 15.5 102500 43
2010-07-06 07:54:59 51°27.534 2°53.017 12.1 278 15.5 102500 42
2010-07-06 07:55:03 51°27.55 2°53.015 12.1 327 15.5 102500 42
2010-07-06 07:55:08 51°27.57 2°53.012 13.1 281 15.5 102500 42
2010-07-06 07:55:14 51°27.593 2°53.009 13.1 328 15.5 102500 42
2010-07-06 07:55:19 51°27.613 2°53.006 11.6 329 15.5 102510 42
2010-07-06 07:55:23 51°27.628 2°53.004 12 326 15.5 102510 42
2010-07-06 07:55:28 51°27.648 2°52.999 11.3 280 15.5 102500 42
2010-07-06 07:55:34 51°27.671 2°52.996 12.2 327 15.5 102500 42
2010-07-06 07:55:39 51°27.691 2°52.993 11.3 326 15.5 102500 43
2010-07-06 07:55:43 51°27.707 2°52.992 10.8 328 15.5 102500 43
2010-07-06 07:55:48 51°27.727 2°52.988 10.2 280 15.5 102520 43
2010-07-06 07:55:54 51°27.75 2°52.986 11.8 329 15.5 102520 43
2010-07-06 07:55:59 51°27.77 2°52.982 11.4 277 15.5 102510 43
2010-07-06 07:56:03 51°27.786 2°52.98 12.1 328 15.5 102510 43
2010-07-06 07:56:08 51°27.806 2°52.977 11.8 282 15.5 102510 42
2010-07-06 07:56:14 51°27.829 2°52.974 13.4 327 15.5 102510 42
2010-07-06 07:56:19 51°27.849 2°52.972 13.9 327 15.5 102510 43
2010-07-06 07:56:23 51°27.865 2°52.97 13.7 329 15.5 102510 43
2010-07-06 07:56:28 51°27.885 2°52.968 11.9 283 15.5 102500 43
2010-07-06 07:56:34 51°27.908 2°52.965 11.6 329 15.5 102500 43
2010-07-06 07:56:39 51°27.928 2°52.962 11.2 330 15.5 102510 43
2010-07-06 07:56:43 51°27.943 2°52.96 11.3 331 15.5 102510 43
2010-07-06 07:56:48 51°27.963 2°52.958 11.2 280 15.5 102510 42
2010-07-06 07:56:54 51°27.987 2°52.954 11.2 328 15.5 102510 42
2010-07-06 07:56:59 51°28.006 2°52.953 11.3 280 15.5 102500 42
2010-07-06 07:57:03 51°28.022 2°52.95 11.8 329 15.5 102500 42
2010-07-06 07:57:08 51°28.042 2°52.948 12.4 287 15.5 102500 43
2010-07-06 07:57:14 51°28.066 2°52.945 13.2 328 15.5 102500 43
2010-07-06 07:57:19 51°28.086 2°52.943 12.4 278 15.5 102500 43
2010-07-06 07:57:23 51°28.102 2°52.941 13.3 328 15.5 102500 43
2010-07-06 07:57:27 51°28.118 2°52.939 12.4 281 15.5 102510 42
2010-07-06 07:57:34 51°28.146 2°52.935 13.2 329 15.5 102510 42
2010-07-06 07:57:39 51°28.167 2°52.932 12.4 328 15.5 102500 41
2010-07-06 07:57:43 51°28.182 2°52.931 13.1 328 15.5 102500 41
2010-07-06 07:57:48 51°28.202 2°52.928 14.7 277 15.5 102510 43
2010-07-06 07:57:54 51°28.226 2°52.925 14.5 329 15.5 102510 43
2010-07-06 07:57:59 51°28.247 2°52.921 12.5 329 15.5 102500 42
2010-07-06 07:58:03 51°28.263 2°52.919 13.1 328 15.5 102500 42
2010-07-06 07:58:08 51°28.283 2°52.916 11.7 284 15.5 102510 42
2010-07-06 07:58:14 51°28.307 2°52.914 11.5 327 15.5 102510 42
2010-07-06 07:58:19 51°28.327 2°52.911 11.3 282 15.4 102500 43
2010-07-06 07:58:23 51°28.343 2°52.91 11.2 327 15.4 102500 43
2010-07-06 07:58:28 51°28.363 2°52.908 12.2 283 15.4 102500 43
2010-07-06 07:58:34 51°28.386 2°52.905 12.6 329 15.4 102500 43
2010-07-06 07:58:39 51°28.406 2°52.902 11.2 329 15.4 102500 42
2010-07-06 07:58:43 51°28.422 2°52.899 11.4 332 15.4 102500 42
2010-07-06 07:58:48 51°28.442 2°52.897 13.2 330 15.4 102510 42
2010-07-06 07:58:54 51°28.466 2°52.893 14.2 330 15.4 102510 42
2010-07-06 07:58:59 51°28.486 2°52.892 11.7 279 15.4 102500 43
2010-07-06 07:59:03 51°28.502 2°52.889 11.7 330 15.4 102500 43
2010-07-06 07:59:08 51°28.522 2°52.887 13.3 280 15.4 102500 43
2010-07-06 07:59:14 51°28.546 2°52.884 11.7 328 15.4 102500 43
2010-07-06 07:59:19 51°28.566 2°52.882 13.7 276 15.4 102500 42
2010-07-06 07:59:23 51°28.582 2°52.881 12.6 328 15.4 102500 42
2010-07-06 07:59:28 51°28.602 2°52.878 11.6 284 15.4 102500 43
2010-07-06 07:59:34 51°28.626 2°52.875 11.8 328 15.4 102500 43
2010-07-06 07:59:39 51°28.645 2°52.872 11.5 329 15.4 102500 42
2010-07-06 07:59:43 51°28.661 2°52.87 10.6 327 15.4 102500 42
2010-07-06 07:59:48 51°28.68 2°52.868 11.5 281 15.4 102500 43
2010-07-06 07:59:54 51°28.703 2°52.864 11.5 330 15.4 102500 43
2010-07-06 07:59:58 51°28.719 2°52.863 12.3 284 15.4 102500 42
2010-07-06 08:00:04 51°28.743 2°52.86 13.6 328 15.4 102500 42
2010-07-06 08:00:08 51°28.759 2°52.858 13.6 285 15.4 102500 42
2010-07-06 08:00:14 51°28.782 2°52.854 13.6 329 15.4 102500 42
2010-07-06 08:00:18 51°28.798 2°52.853 12.3 282 15.5 102500 42
2010-07-06 08:00:23 51°28.818 2°52.85 11.8 326 15.5 102500 42
2010-07-06 08:00:28 51°28.838 2°52.847 12.7 278 15.4 102510 43
2010-07-06 08:00:33 51°28.858 2°52.845 11.5 328 15.4 102510 43
2010-07-06 08:00:38 51°28.878 2°52.842 11 329 15.4 102500 43
2010-07-06 08:00:43 51°28.897 2°52.839 11.5 328 15.4 102500 43
2010-07-06 08:00:48 51°28.917 2°52.836 13.9 284 15.4 102500 42
2010-07-06 08:00:54 51°28.941 2°52.834 13.5 331 15.4 102500 42
2010-07-06 08:00:59 51°28.961 2°52.832 11.6 328 15.4 102490 42
2010-07-06 08:01:03 51°28.977 2°52.83 13.7 328 15.4 102490 42
2010-07-06 08:01:08 51°28.997 2°52.827 14.7 327 15.4 102500 43
2010-07-06 08:01:14 51°29.021 2°52.824 12.2 327 15.4 102500 43
2010-07-06 08:01:19 51°29.04 2°52.822 13.6 278 15.4 102500 42
2010-07-06 08:01:23 51°29.056 2°52.821 13.4 327 15.4 102500 42
2010-07-06 08:01:28 51°29.076 2°52.819 11.5 280 15.4 102500 43
2010-07-06 08:01:33 51°29.095 2°52.816 10.8 327 15.4 102500 43
2010-07-06 08:01:39 51°29.119 2°52.813 11.9 327 15.4 102500 43
2010-07-06 08:01:43 51°29.134 2°52.811 13.6 328 15.4 102500 43
2010-07-06 08:01:48 51°29.155 2°52.808 10.8 277 15.4 102500 42
2010-07-06 08:01:54 51°29.18 2°52.804 11.2 328 15.4 102500 42
2010-07-06 08:01:59 51°29.2 2°52.802 10.6 282 15.4 102500 42
2010-07-06 08:02:03 51°29.216 2°52.799 12 328 15.4 102500 42
2010-07-06 08:02:08 51°29.236 2°52.797 9.6 280 15.4 102500 42
2010-07-06 08:02:14 51°29.26 2°52.794 11.7 327 15.4 102500 42
2010-07-06 08:02:19 51°29.279 2°52.794 11.3 327 15.5 102510 43
2010-07-06 08:02:23 51°29.295 2°52.791 14.1 328 15.5 102510 43
2010-07-06 08:02:28 51°29.315 2°52.793 13.7 281 15.5 102490 43
2010-07-06 08:02:34 51°29.339 2°52.791 11.8 326 15.5 102490 43
2010-07-06 08:02:39 51°29.358 2°52.791 11.8 326 15.5 102500 42
2010-07-06 08:02:43 51°29.374 2°52.792 11.4 326 15.5 102500 42
2010-07-06 08:02:48 51°29.393 2°52.794 10.9 281 15.5 102490 43
2010-07-06 08:02:54 51°29.417 2°52.796 11 324 15.5 102490 43
2010-07-06 08:02:59 51°29.436 2°52.798 11.1 326 15.5 102500 42
2010-07-06 08:03:03 51°29.452 2°52.8 11.5 325 15.5 102500 42
2010-07-06 08:03:09 51°29.476 2°52.803 12.5 280 15.5 102500 43
2010-07-06 08:03:14 51°29.496 2°52.806 12.5 324 15.5 102500 43
2010-07-06 08:03:19 51°29.515 2°52.81 12.1 283 15.4 102490 43
2010-07-06 08:03:23 51°29.531 2°52.813 11.9 324 15.4 102490 43
2010-07-06 08:03:28 51°29.551 2°52.816 13 326 15.4 102490 42
2010-07-06 08:03:34 51°29.574 2°52.82 13.1 324 15.4 102490 42
2010-07-06 08:03:39 51°29.594 2°52.823 13.6 327 15.4 102490 43
2010-07-06 08:03:43 51°29.609 2°52.824 12.9 325 15.4 102490 43
2010-07-06 08:03:48 51°29.629 2°52.826 11.8 279 15.4 102490 43
2010-07-06 08:03:53 51°29.648 2°52.829 13.3 327 15.4 102490 43
2010-07-06 08:03:59 51°29.671 2°52.83 12.8 277 15.4 102490 42
2010-07-06 08:04:03 51°29.687 2°52.832 10.4 324 15.4 102490 42
2010-07-06 08:04:08 51°29.707 2°52.831 11.3 280 15.4 102490 43
2010-07-06 08:04:14 51°29.729 2°52.833 10.7 324 15.4 102490 43
2010-07-06 08:04:19 51°29.748 2°52.833 11.1 325 15.4 102490 43
2010-07-06 08:04:23 51°29.764 2°52.834 11.8 324 15.4 102490 43
2010-07-06 08:04:28 51°29.784 2°52.835 12 276 15.4 102490 43
2010-07-06 08:04:34 51°29.807 2°52.835 11 326 15.4 102490 43
2010-07-06 08:04:39 51°29.827 2°52.835 12.2 326 15.4 102490 42
2010-07-06 08:04:43 51°29.843 2°52.836 12 325 15.4 102490 42
2010-07-06 08:04:48 51°29.862 2°52.836 13.1 278 15.4 102500 42
2010-07-06 08:04:54 51°29.886 2°52.837 13.2 325 15.4 102500 42
2010-07-06 08:04:59 51°29.905 2°52.836 12.1 324 15.4 102490 42
2010-07-06 08:05:03 51°29.921 2°52.837 13.9 325 15.4 102490 42
2010-07-06 08:05:08 51°29.941 2°52.837 12.3 280 15.4 102490 43
2010-07-06 08:05:14 51°29.966 2°52.839 11.2 325 15.4 102490 43
2010-07-06 08:05:19 51°29.986 2°52.839 12.7 282 15.4 102490 42
2010-07-06 08:05:23 51°30.002 2°52.84 10.8 326 15.4 102490 42
2010-07-06 08:05:28 51°30.022 2°52.841 10.1 284 15.4 102490 43
2010-07-06 08:05:34 51°30.046 2°52.842 11.4 325 15.4 102490 43
2010-07-06 08:05:39 51°30.066 2°52.843 11 326 15.4 102500 42
2010-07-06 08:05:43 51°30.082 2°52.843 11.3 325 15.4 102500 42
2010-07-06 08:05:48 51°30.102 2°52.844 11.8 281 15.4 102490 42
2010-07-06 08:05:54 51°30.126 2°52.845 11.2 325 15.4 102490 42
2010-07-06 08:05:59 51°30.145 2°52.845 12.4 282 15.4 102500 42
2010-07-06 08:06:03 51°30.161 2°52.846 13.8 325 15.4 102500 42
2010-07-06 08:06:08 51°30.181 2°52.847 11.7 282 15.4 102500 43
2010-07-06 08:06:14 51°30.205 2°52.848 13.1 326 15.4 102500 43
2010-07-06 08:06:19 51°30.225 2°52.849 12.9 276 15.4 102490 43
2010-07-06 08:06:23 51°30.241 2°52.848 13.7 325 15.4 102490 43
2010-07-06 08:06:28 51°30.26 2°52.849 13.4 281 15.4 102490 43
2010-07-06 08:06:33 51°30.279 2°52.851 13.1 324 15.4 102490 43
2010-07-06 08:06:38 51°30.298 2°52.853 12.8 325 15.4 102500 43
2010-07-06 08:06:43 51°30.318 2°52.853 11.2 326 15.4 102500 43
2010-07-06 08:06:48 51°30.335 2°52.857 12.8 278 15.4 102490 43
2010-07-06 08:06:54 51°30.356 2°52.861 11.1 324 15.4 102490 43
2010-07-06 08:06:58 51°30.373 2°52.861 11.9 279 15.4 102490 42
2010-07-06 08:07:03 51°30.394 2°52.861 12.7 327 15.4 102490 42
2010-07-06 08:07:08 51°30.41 2°52.866 11 284 15.4 102490 43
2010-07-06 08:07:13 51°30.426 2°52.871 10.8 325 15.4 102490 43
2010-07-06 08:07:19 51°30.461 2°52.861 10.5 283 15.5 102490 42
2010-07-06 08:07:23 51°30.48 2°52.86 10.6 327 15.5 102490 42
2010-07-06 08:07:28 51°30.5 2°52.86 11.4 328 15.4 102490 42
2010-07-06 08:07:34 51°30.525 2°52.861 11.6 328 15.4 102490 42
2010-07-06 08:07:39 51°30.545 2°52.862 10.8 327 15.4 102490 42
2010-07-06 08:07:43 51°30.561 2°52.862 11.4 328 15.4 102490 42
2010-07-06 08:07:48 51°30.581 2°52.863 11.5 282 15.4 102500 43
2010-07-06 08:07:54 51°30.605 2°52.864 11.6 327 15.4 102500 43
2010-07-06 08:07:59 51°30.625 2°52.865 11.8 281 15.4 102500 42
2010-07-06 08:08:03 51°30.641 2°52.866 12.2 325 15.4 102500 42